Wind_Speed
7 7 5 4 3 5 1 3 1 2 3 2 5 4 6 5 3 3 15 14 24 24 16 17 15 11 9 8 9 10 12 12 12 14 17 12 10 5 5 8 8 10 14 15 16 15 16 16 16
8 5 3 3 4 3 4 3 6 5 8 17 11 8 4 2 3 10 21 19 24 22 20 18 16 12 10 10 11 11 12 12 14 15 16 11 9 5 5 7 8 10 13 16 15 15 14 13 14
6 3 1 4 3 4 4 4 5 4 16 4 4 5 4 5 7 22 18 26 25 23 20 19 15 12 11 11 11 11 12 12 13 13 14 10 7 6 6 8 9 10 13 13 13 14 13 12 13
5 2 5 4 4 3 3 6 5 6 3 3 7 6 4 3 12 18 26 26 25 22 20 17 16 13 11 10 11 11 11 11 12 11 11 8 5 6 6 8 9 11 13 12 12 14 13 14 15
5 3 4 3 3 2 1 8 10 3 4 7 6 4 3 11 10 15 25 25 22 20 19 16 16 14 11 9 9 10 10 10 10 9 8 6 5 6 6 7 8 10 13 10 14 14 13 12 13
2 3 4 2 2 4 2 10 6 4 4 8 6 8 5 13 13 18 22 22 20 19 18 17 16 14 12 10 8 8 9 8 8 7 7 6 6 6 6 6 6 8 10 9 11 12 11 11 11
6 4 5 4 3 0 4 10 4 7 7 4 13 5 4 18 14 17 20 20 20 20 18 18 17 15 14 11 9 8 9 8 7 6 6 6 5 5 6 6 6 6 6 7 7 6 8 8 9
3 5 4 2 5 3 5 10 7 8 5 6 9 5 4 19 20 16 20 18 20 20 19 19 18 17 15 13 10 8 8 8 7 6 5 5 5 5 6 5 6 6 6 7 7 7 6 5 4
4 4 2 4 6 4 10 4 7 3 7 7 8 4 3 20 21 24 22 22 21 21 20 21 19 19 17 16 14 11 10 9 9 7 5 4 4 4 4 5 5 5 5 6 5 4 3 3 4
4 4 7 3 4 4 7 2 10 5 6 5 7 6 7 22 27 28 29 28 27 25 23 22 21 21 20 19 17 14 14 13 12 10 8 6 6 5 5 4 5 5 5 5 5 4 4 4 4
3 5 5 2 3 4 7 2 6 8 3 11 14 13 14 24 28 30 28 28 27 25 24 24 22 22 23 22 20 19 17 15 14 13 11 10 9 8 7 6 6 6 6 4 4 4 4 4 5
4 2 4 5 3 5 6 3 3 10 7 4 13 13 17 24 28 30 30 29 27 28 24 22 22 22 25 24 23 22 21 19 18 17 16 14 12 11 9 9 8 7 6 5 4 3 3 4 6
3 4 3 4 3 3 4 4 5 11 15 5 6 15 19 22 24 26 27 28 28 29 29 26 23 20 26 27 26 26 25 23 20 20 18 17 15 14 10 12 10 9 8 6 4 2 2 3 4
5 5 4 4 2 2 3 2 1 1 9 15 11 11 17 23 23 25 29 30 31 30 30 29 28 25 22 25 28 27 26 24 23 23 22 20 18 17 13 14 14 12 12 10 9 7 6 6 6
6 4 3 4 3 2 3 4 7 8 7 7 18 14 18 21 26 29 24 26 28 31 31 32 31 30 28 25 24 26 24 24 25 25 24 23 23 21 17 16 16 16 15 14 12 11 12 14 12
4 5 3 2 5 2 4 7 4 1 3 7 12 15 18 21 24 28 29 28 28 32 33 32 34 34 32 30 28 28 27 26 26 25 26 27 26 23 22 22 20 20 20 19 16 15 16 16 16
5 3 3 5 6 2 2 5 4 4 4 9 6 12 16 20 23 26 29 31 30 30 33 34 35 37 36 33 32 32 31 31 30 30 28 29 30 26 28 27 25 25 26 26 24 22 21 22 20
6 3 2 3 3 2 2 8 8 14 13 15 15 16 20 23 25 22 24 27 31 31 32 35 35 36 37 37 35 36 35 36 36 35 36 32 32 31 31 32 31 30 31 31 30 28 27 26 25
6 4 2 2 1 2 5 6 11 24 20 21 24 25 26 28 27 26 25 26 28 32 33 33 37 37 39 41 41 41 42 40 40 41 39 38 35 34 34 33 35 35 36 34 36 34 33 31 31
3 3 2 2 1 2 4 9 9 15 21 26 27 27 22 21 19 20 23 24 26 25 29 33 35 35 37 40 40 43 42 42 41 40 41 41 38 38 37 36 38 37 37 39 39 42 39 37 36
3 5 4 4 1 4 5 8 6 5 8 13 14 16 19 20 16 9 7 8 16 23 25 27 31 36 37 37 41 45 49 48 47 46 44 43 42 42 41 41 41 41 40 42 40 39 46 46 41
4 5 4 4 3 2 2 5 6 5 10 8 18 9 9 12 10 10 9 7 5 9 16 22 27 33 38 40 42 42 43 47 44 46 45 45 43 43 42 42 43 42 41 40 41 43 41 50 42
5 4 3 3 4 3 3 2 7 5 6 5 12 14 14 15 14 12 9 8 8 7 6 11 16 20 28 38 43 44 44 44 46 46 46 45 45 43 43 42 43 45 45 44 42 42 44 51 49
8 6 7 4 3 1 5 4 5 3 1 4 7 17 20 20 20 19 17 13 10 10 11 12 12 12 15 21 31 39 42 43 44 43 44 43 42 40 41 43 46 46 47 48 48 49 47 47 49
4 6 2 3 3 5 1 3 8 2 3 2 6 17 19 21 24 27 30 30 29 29 28 22 16 14 13 13 16 23 31 36 39 41 42 41 41 40 38 38 41 44 47 47 48 50 50 51 52
6 7 5 7 4 3 1 4 5 4 9 12 13 16 20 19 17 20 24 25 25 25 25 26 27 23 16 14 15 17 21 27 32 34 36 37 37 37 35 35 36 39 43 45 48 49 51 52 54
5 4 4 6 3 3 4 5 5 5 8 12 18 23 24 25 22 21 19 22 23 21 22 23 24 24 24 21 16 16 19 23 26 27 28 29 30 29 29 30 32 34 38 41 43 47 49 51 54
3 7 4 3 2 3 3 3 5 7 5 6 14 18 18 20 20 20 22 20 19 19 18 18 18 20 20 20 20 20 18 17 17 18 19 21 23 24 25 27 30 32 35 37 40 43 46 48 52
3 3 3 4 5 5 2 5 4 11 8 8 10 14 14 16 17 17 17 16 19 19 19 19 18 16 14 15 17 18 18 16 14 17 20 22 23 24 26 28 31 33 34 36 38 41 42 45 46
2 6 6 5 5 2 3 5 7 9 12 10 9 15 13 11 8 11 14 17 18 20 22 21 19 17 17 18 19 18 19 21 22 25 26 26 28 29 31 32 35 37 38 38 38 39 40 42 43
Wind_Direction
248 257 293 289 53 65 218 243 231 141 149 176 149 157 153 91 150 200 142 155 155 160 160 147 138 135 128 121 130 126 125 125 122 119 121 125 138 129 73 69 90 96 104 100 95 96 98 89 86
225 245 279 92 92 85 263 263 175 192 134 120 101 103 79 107 137 148 147 155 162 161 154 148 149 146 143 133 130 125 122 119 119 126 130 141 146 130 97 89 105 105 109 105 102 100 103 92 86
210 220 182 96 113 169 198 209 204 147 151 153 104 86 114 147 173 159 153 152 157 166 164 157 155 151 143 137 136 128 122 121 122 131 139 146 131 116 99 106 119 119 116 111 108 106 102 94 93
189 148 68 88 185 231 227 181 188 139 166 171 139 77 108 139 155 156 155 158 159 162 163 167 168 166 148 148 146 137 129 124 119 127 143 146 136 128 116 123 128 130 125 120 115 109 105 94 99
159 103 59 70 288 287 249 161 166 144 155 146 140 162 106 137 151 160 163 165 168 173 174 174 177 175 163 157 149 143 132 123 116 116 123 135 129 125 124 129 135 138 129 133 123 118 119 114 114
116 95 64 154 283 327 66 159 173 158 169 149 129 130 146 166 160 163 169 170 173 177 177 179 181 179 180 174 159 149 147 136 125 116 115 112 114 121 126 129 133 142 147 143 138 143 140 132 129
129 87 177 167 187 310 198 183 199 175 151 207 148 125 189 183 174 170 176 176 179 186 187 185 187 187 191 187 176 169 161 155 142 133 117 107 112 127 130 132 134 145 150 161 157 155 151 137 134
132 92 131 199 180 241 169 164 195 167 186 156 171 176 195 185 181 177 178 182 187 194 198 195 194 197 197 197 197 190 174 170 165 152 137 124 125 128 126 133 138 152 162 170 173 167 161 158 153
131 66 158 197 150 226 162 140 172 200 162 178 203 239 233 178 180 182 183 184 188 196 202 202 204 205 205 206 205 199 194 191 188 183 174 158 156 147 146 141 142 155 164 176 180 183 181 184 162
100 114 205 205 185 185 168 176 158 169 171 208 205 221 183 181 183 188 192 193 195 199 200 202 207 211 210 211 211 210 209 205 204 205 201 194 195 191 182 166 166 168 173 191 188 190 193 195 206
140 172 196 168 109 163 149 198 182 156 232 215 215 206 186 185 192 197 202 204 204 203 209 210 212 214 215 215 215 216 219 217 215 217 217 219 216 208 204 198 194 191 196 193 179 180 196 217 222
113 146 175 155 140 137 161 172 221 210 218 255 236 227 203 195 199 205 210 212 211 212 216 216 215 219 220 221 223 225 227 225 222 223 225 226 224 216 218 209 207 208 207 196 188 190 210 225 225
120 171 130 150 171 164 180 205 229 253 237 230 224 213 216 214 214 215 218 218 218 219 222 225 223 223 225 224 226 229 230 229 231 231 234 234 229 227 231 215 214 215 207 212 210 206 217 252 250
158 144 142 179 188 182 168 252 183 350 236 230 232 210 224 229 227 220 218 222 223 226 228 229 231 234 233 232 231 232 235 236 236 239 240 240 235 234 238 229 224 222 211 210 237 247 270 269 262
120 105 23 208 192 183 154 268 239 256 247 230 233 233 235 238 235 234 235 230 229 230 231 232 236 238 240 242 239 236 239 240 239 237 241 242 240 236 239 241 242 236 226 225 230 255 266 258 243
71 50 113 279 159 176 135 263 263 290 198 252 241 239 236 235 243 245 241 242 239 235 235 235 235 238 242 244 244 240 240 242 245 245 247 246 244 239 240 238 244 244 240 239 255 257 262 266 261
14 180 188 307 190 131 123 254 255 187 345 311 268 249 245 246 245 246 247 246 245 243 240 239 237 238 241 244 246 246 247 247 247 249 250 250 251 246 238 241 243 245 244 243 242 243 252 254 251
189 193 231 242 219 130 155 263 287 271 285 283 282 264 256 254 254 252 254 252 248 247 246 242 242 242 242 246 246 246 246 249 248 251 251 252 254 253 244 242 243 246 246 246 248 247 248 247 244
135 131 152 256 132 162 247 267 275 287 291 280 279 274 270 266 269 262 258 259 254 248 245 244 242 243 241 241 241 242 242 244 246 248 251 252 255 256 252 252 249 248 249 253 250 247 246 243 240
102 101 250 280 38 143 348 277 265 270 270 273 279 283 283 290 287 275 263 256 255 254 249 246 245 243 244 244 245 245 248 249 250 252 253 253 252 254 254 254 256 254 253 257 252 250 247 241 242
172 160 198 209 42 54 343 305 332 299 276 287 279 293 303 295 299 315 312 284 258 258 258 255 253 249 248 247 246 246 245 249 250 250 252 253 253 253 255 256 256 258 256 254 257 260 249 246 249
162 198 152 148 88 210 20 284 310 313 298 327 336 340 31 47 53 51 52 42 337 283 264 260 258 255 252 249 248 250 251 252 258 257 258 257 256 256 257 258 257 259 259 257 261 258 258 256 250
197 112 122 92 98 75 319 87 271 339 321 356 37 40 47 50 46 46 32 5 347 332 312 273 266 263 259 254 252 252 253 257 258 260 261 259 258 258 256 255 257 259 260 258 260 260 260 257 254
147 82 50 54 86 333 240 144 289 234 159 23 23 51 55 57 54 50 41 27 11 357 344 332 319 299 277 263 257 258 258 258 261 265 265 266 266 263 258 259 259 260 262 263 264 265 263 263 261
82 81 357 346 3 220 61 99 243 294 7 33 66 53 56 59 62 62 58 55 53 49 43 32 10 345 327 306 283 270 266 264 265 267 269 271 271 270 269 264 259 260 263 265 267 267 266 267 261
184 156 158 196 195 248 85 227 245 114 105 102 58 47 49 52 59 62 55 48 43 37 36 35 34 26 2 325 300 282 272 267 267 268 271 272 272 273 273 270 265 261 260 261 261 264 265 267 264
190 179 156 103 28 69 216 287 327 89 90 68 56 59 54 50 45 37 31 25 25 24 25 21 18 16 11 7 344 309 286 277 274 273 272 271 269 269 270 268 265 263 261 260 261 261 261 262 263
158 159 75 12 161 257 274 232 216 106 111 61 45 40 32 24 23 18 15 12 9 7 5 5 1 360 0 358 355 349 332 310 294 287 284 281 279 277 275 273 270 266 264 262 261 261 262 262 263
133 167 72 129 156 176 181 252 194 149 141 106 67 34 22 20 17 9 10 2 349 347 348 350 344 343 340 338 339 339 334 323 311 308 310 304 295 290 286 281 278 273 270 267 265 264 265 265 265
188 179 155 151 218 239 149 261 141 147 143 88 46 26 26 16 20 5 354 346 342 342 345 352 349 344 335 327 322 318 315 311 301 300 303 300 297 293 290 286 282 279 276 272 269 268 267 267 269
Height
1529 1531 1531 1531 1542 1547 1553 1547 1538 1538 1539 1538 1537 1538 1540 1541 1544 1556 1546 1549 1552 1556 1559 1561 1564 1565 1566 1566 1567 1567 1567 1569 1568 1568 1569 1571 1571 1570 1570 1569 1569 1569 1569 1569 1569 1568 1568 1568 1568
1530 1530 1531 1530 1550 1560 1558 1542 1542 1536 1537 1538 1538 1538 1540 1543 1543 1544 1546 1549 1553 1556 1559 1562 1564 1566 1568 1568 1569 1569 1569 1569 1569 1570 1572 1573 1572 1572 1572 1571 1571 1571 1571 1571 1572 1571 1571 1571 1571
1530 1530 1531 1538 1554 1557 1553 1538 1537 1536 1536 1537 1538 1539 1540 1541 1543 1545 1547 1550 1554 1558 1560 1563 1566 1568 1569 1569 1570 1571 1571 1571 1571 1572 1573 1574 1573 1573 1573 1572 1573 1573 1574 1574 1574 1574 1574 1574 1573
1529 1531 1533 1544 1544 1538 1537 1534 1536 1537 1538 1537 1539 1541 1542 1542 1542 1545 1548 1551 1555 1558 1561 1564 1566 1569 1570 1571 1572 1572 1573 1573 1573 1574 1574 1574 1574 1575 1575 1575 1575 1575 1576 1576 1576 1577 1577 1577 1577
1528 1529 1543 1546 1541 1536 1534 1534 1537 1537 1537 1538 1538 1543 1543 1543 1545 1547 1549 1552 1555 1559 1562 1564 1567 1569 1571 1572 1573 1573 1574 1575 1575 1576 1576 1576 1576 1577 1577 1577 1577 1577 1577 1578 1578 1580 1580 1580 1580
1528 1530 1549 1552 1544 1537 1534 1535 1537 1537 1538 1538 1539 1542 1545 1545 1546 1548 1550 1553 1557 1560 1562 1565 1567 1569 1571 1572 1573 1574 1575 1576 1577 1577 1578 1578 1578 1579 1579 1579 1579 1579 1579 1579 1580 1581 1581 1582 1582
1527 1535 1546 1544 1544 1540 1536 1537 1538 1538 1538 1540 1539 1543 1544 1545 1547 1549 1551 1554 1557 1560 1562 1565 1567 1569 1571 1572 1573 1575 1576 1577 1577 1579 1579 1579 1580 1580 1580 1580 1580 1581 1581 1581 1581 1582 1584 1583 1584
1527 1531 1542 1540 1545 1539 1534 1536 1536 1537 1539 1539 1540 1541 1543 1543 1547 1550 1552 1554 1556 1559 1561 1563 1565 1568 1570 1571 1573 1574 1576 1577 1578 1579 1579 1580 1581 1581 1580 1581 1581 1582 1582 1582 1583 1583 1585 1585 1585
1527 1540 1547 1539 1542 1535 1534 1535 1536 1537 1538 1539 1539 1538 1539 1541 1545 1550 1551 1552 1555 1557 1560 1562 1564 1566 1569 1571 1572 1574 1575 1577 1578 1579 1580 1581 1582 1581 1582 1581 1582 1583 1583 1583 1584 1585 1585 1586 1586
1527 1540 1538 1532 1531 1533 1533 1535 1535 1538 1538 1538 1537 1538 1538 1540 1543 1546 1548 1550 1551 1554 1557 1560 1563 1565 1567 1569 1571 1573 1574 1576 1578 1579 1580 1580 1582 1582 1582 1582 1582 1583 1584 1584 1585 1585 1586 1587 1587
1529 1534 1531 1531 1530 1532 1533 1536 1536 1536 1538 1534 1535 1536 1538 1539 1542 1544 1546 1548 1550 1553 1555 1558 1560 1563 1565 1567 1569 1571 1573 1575 1576 1578 1579 1580 1581 1582 1582 1582 1582 1583 1584 1585 1585 1586 1587 1587 1588
1530 1528 1530 1530 1531 1531 1534 1535 1535 1535 1533 1534 1534 1537 1537 1539 1539 1541 1543 1546 1549 1551 1554 1556 1558 1561 1563 1565 1567 1569 1571 1573 1574 1576 1577 1579 1580 1581 1581 1582 1583 1583 1584 1585 1585 1586 1587 1587 1588
1527 1528 1530 1531 1532 1531 1534 1534 1535 1533 1534 1534 1532 1535 1537 1538 1539 1540 1543 1546 1549 1551 1553 1555 1557 1558 1560 1563 1565 1567 1568 1570 1573 1574 1575 1577 1578 1579 1580 1581 1582 1583 1583 1585 1585 1586 1587 1587 1588
1526 1527 1529 1531 1532 1533 1534 1535 1533 1531 1530 1533 1534 1533 1535 1538 1538 1540 1542 1543 1545 1547 1549 1553 1554 1557 1559 1561 1563 1564 1566 1568 1570 1571 1574 1575 1577 1579 1580 1581 1582 1582 1583 1583 1584 1585 1586 1586 1586
1528 1530 1529 1532 1531 1533 1533 1535 1533 1528 1529 1530 1532 1533 1534 1535 1538 1538 1539 1540 1542 1544 1547 1549 1552 1556 1557 1559 1561 1563 1564 1566 1567 1568 1570 1572 1574 1576 1578 1579 1580 1582 1582 1583 1583 1585 1586 1585 1585
1531 1535 1540 1531 1532 1533 1534 1540 1529 1527 1527 1528 1529 1531 1531 1531 1533 1536 1538 1539 1541 1542 1544 1547 1549 1552 1554 1556 1558 1560 1562 1564 1565 1566 1567 1569 1571 1574 1575 1576 1578 1579 1580 1581 1582 1583 1583 1583 1583
1539 1544 1540 1535 1531 1532 1534 1534 1527 1526 1526 1527 1528 1528 1528 1528 1527 1530 1533 1535 1537 1539 1541 1543 1546 1548 1550 1553 1555 1557 1559 1561 1562 1564 1565 1566 1567 1570 1571 1573 1575 1576 1576 1577 1578 1579 1579 1579 1579
1541 1540 1538 1537 1532 1532 1534 1534 1528 1525 1524 1524 1524 1525 1524 1523 1521 1525 1527 1529 1532 1534 1537 1539 1541 1543 1546 1549 1552 1554 1556 1557 1558 1560 1561 1563 1564 1566 1567 1568 1571 1572 1572 1573 1574 1574 1575 1575 1576
1532 1533 1535 1534 1530 1534 1534 1536 1529 1523 1522 1520 1518 1518 1518 1517 1517 1519 1522 1525 1526 1528 1531 1533 1535 1537 1540 1543 1545 1547 1548 1550 1552 1553 1556 1558 1560 1561 1563 1564 1565 1567 1568 1569 1569 1569 1570 1571 1571
1527 1532 1536 1536 1532 1534 1535 1533 1527 1523 1516 1514 1514 1512 1513 1513 1511 1512 1514 1517 1520 1522 1524 1527 1528 1532 1534 1536 1538 1540 1542 1544 1547 1549 1550 1552 1554 1556 1557 1559 1559 1562 1562 1563 1564 1564 1564 1564 1566
1530 1536 1537 1537 1536 1535 1540 1536 1530 1518 1514 1510 1510 1511 1512 1510 1507 1509 1510 1512 1515 1517 1519 1520 1522 1525 1528 1530 1532 1534 1536 1538 1540 1541 1543 1544 1547 1550 1551 1553 1553 1555 1556 1556 1557 1558 1557 1555 1559
1533 1528 1532 1534 1541 1549 1545 1556 1536 1523 1517 1512 1509 1508 1509 1508 1507 1508 1509 1510 1512 1513 1513 1514 1516 1519 1522 1524 1525 1527 1528 1528 1530 1533 1536 1538 1541 1543 1545 1546 1546 1547 1549 1549 1550 1551 1551 1552 1549
1528 1527 1532 1536 1545 1546 1549 1557 1537 1528 1521 1515 1512 1512 1511 1509 1509 1508 1510 1511 1511 1511 1510 1510 1511 1512 1515 1518 1520 1522 1523 1525 1526 1528 1530 1533 1534 1536 1537 1539 1539 1539 1539 1541 1542 1544 1545 1543 1543
1524 1531 1540 1548 1551 1559 1550 1550 1544 1529 1521 1518 1516 1513 1512 1511 1511 1511 1511 1511 1511 1511 1510 1509 1509 1508 1509 1511 1514 1516 1518 1520 1521 1522 1523 1525 1527 1528 1529 1530 1531 1532 1533 1533 1533 1533 1534 1534 1534
1525 1535 1556 1560 1569 1561 1552 1555 1537 1523 1522 1520 1519 1516 1515 1514 1514 1513 1512 1513 1513 1512 1511 1509 1508 1508 1508 1508 1509 1511 1514 1516 1516 1517 1518 1519 1520 1520 1522 1523 1524 1524 1523 1524 1524 1523 1523 1523 1523
1527 1530 1550 1561 1570 1555 1551 1548 1529 1519 1519 1520 1520 1519 1518 1516 1517 1516 1516 1516 1515 1514 1513 1512 1510 1509 1509 1508 1508 1508 1507 1508 1510 1510 1511 1511 1511 1512 1514 1514 1515 1515 1516 1516 1516 1515 1514 1513 1512
1526 1533 1530 1552 1594 1573 1547 1535 1517 1519 1524 1523 1521 1519 1519 1520 1519 1518 1517 1517 1516 1515 1513 1513 1512 1511 1509 1507 1506 1504 1504 1503 1503 1504 1504 1503 1502 1503 1504 1505 1505 1506 1507 1507 1507 1506 1505 1504 1502
1514 1519 1537 1551 1563 1568 1545 1537 1527 1528 1528 1525 1521 1523 1521 1520 1519 1519 1517 1518 1518 1516 1514 1512 1512 1511 1509 1507 1505 1503 1501 1499 1499 1499 1498 1497 1497 1497 1497 1497 1497 1497 1498 1498 1497 1495 1495 1493 1492
1519 1521 1527 1531 1542 1549 1561 1536 1519 1522 1523 1524 1522 1522 1520 1518 1518 1518 1518 1518 1517 1515 1513 1511 1509 1508 1507 1505 1503 1501 1500 1499 1497 1496 1496 1494 1493 1491 1490 1489 1489 1488 1488 1489 1488 1486 1485 1482 1481
1506 1510 1515 1528 1539 1547 1542 1533 1516 1516 1517 1518 1519 1519 1518 1518 1517 1516 1516 1515 1514 1511 1508 1507 1507 1506 1504 1502 1500 1499 1498 1496 1494 1493 1492 1490 1488 1486 1484 1483 1481 1479 1478 1478 1478 1476 1475 1474 1472